Location: Luxembourg
(49.6117°N, 6.1300°E)
Time: 21:49:09
(UTC+01:00)

ISS - Pass Details

Date: 25 January 2019
Orbit: 403 x 411 km, 51.6° (Epoch: 22 February)

Event Time Altitude Azimuth Distance (km) Brightness Sun altitude
Rises 18:25:34 0° 214° (SSW) 2,322 0.9 -10.8°
Reaches altitude 10° 18:27:52 10° 200° (SSW) 1,467 -0.5 -11.2°
Maximum altitude 18:30:36 24° 144° (SE) 888 -2.3 -11.6°
Enters shadow 18:32:13 17° 102° (ESE) 1,129 -2.1 -11.8°
